[[{"header":{"parameterUnit":"m.s-1","parameterCategory":1,"la1":30.2992,"la2":30.254,"lo1":-89.0895,"lo2":-89.0443,"dy":0.0025,"dx":0.0025,"nx":19,"ny":19,"refTime":"2026-04-08T09:00:00:Z","depth":0,"parameterNumber":2,"parameterNumberName":"U-component_of_WINDS"},"data":[0,0,0,-7.6387,-7.6392,-7.6572,-7.6573,-7.6844,-7.6847,0,0,0,0,0,0,0,0,0,0,0,-7.6357,-7.636,-7.6387,-7.6392,-7.6572,-7.6573,-7.6844,-7.6847,0,0,0,0,0,0,0,0,0,0,0,-7.6356,-7.6359,-7.6363,-7.6393,-7.6572,-7.6573,-7.6843,-7.6693,0,0,0,0,0,0,0,0,0,0,-7.6511,-7.6506,-7.6359,-7.6363,-7.6394,-7.6572,-7.6573,-7.6685,-7.6702,-7.678,0,-7.6854,0,-7.6855,-7.6868,-7.6869,0,0,0,-7.6375,-7.6492,-7.6519,-7.6363,-7.6396,-7.6572,-7.6486,-7.6694,-7.6714,-7.6803,-7.6858,-7.6867,-7.686,-7.687,-7.6871,-7.7377,-7.738,0,0,-7.6365,-7.6403,-7.6506,-7.6533,-7.6507,-7.648,-7.6492,-7.6705,-7.6768,-7.6859,-7.6872,-7.6864,-7.6872,-7.6874,-7.7374,-7.7378,0,0,0,-7.6348,-7.6397,-7.6418,-7.6523,-7.6552,-7.6486,-7.6499,-7.6758,-7.6762,-7.6875,-7.6868,-7.6874,-7.6878,-7.737,-7.7375,-7.7572,0,0,0,-7.6341,-7.6387,-7.6414,-7.644,-7.6549,-7.6657,-7.6548,-7.6747,-7.677,-7.6866,-7.6874,-7.6881,-7.7367,-7.7373,-7.7558,-7.7659,0,0,0,-7.6338,-7.6386,-7.642,-7.6441,-7.652,-7.6653,-7.6668,-7.6751,-7.6767,-7.6869,-7.6881,-7.7364,-7.7372,-7.7547,-7.7639,-7.7805,0,0,0,-7.6345,-7.6591,-7.6424,-7.6696,-7.6519,-7.6772,-7.6666,-7.6853,-7.6964,-7.6875,-7.7367,-7.7375,-7.7543,-7.7627,-7.7793,-7.7952,-7.8022,0,0,-7.6677,-7.6632,-7.6789,-7.6645,-7.6938,-7.6742,-7.7064,-7.7129,-7.7103,-7.7288,-7.7299,-7.7563,-7.7638,-7.7802,-7.8394,-7.845,0,0,0,-7.6907,-7.7021,-7.709,-7.7198,-7.7254,-7.7311,-7.7322,-7.7347,-7.7501,-7.7206,-7.7664,-7.7708,-7.7803,-7.7878,-7.7925,-7.8005,-7.741,-7.7409,-7.7409,-7.7433,-7.7387,-7.7644,-7.7622,-7.7728,-7.7738,-7.782,-7.7855,-7.7777,-7.7887,-7.7942,-7.8307,-7.8396,-7.8431,-7.8515,-7.802,-7.8021,-7.8022,-7.8022,-7.7917,-7.8071,-7.7963,-7.8174,-7.8125,-7.8301,-7.8321,-7.8261,-7.8419,-7.8261,-7.8342,-7.8176,-7.8493,-7.8565,-7.8037,-7.8034,-7.8032,-7.8031,-7.803,-7.8258,-7.8324,-7.8349,-7.8502,-7.8625,-7.8592,-7.875,-7.8698,-7.8651,-7.8732,-7.8786,-7.8783,-7.8775,-7.8761,-7.8762,-7.8763,-7.8764,-7.8765,-7.8766,-7.8603,-7.8625,-7.8764,-7.8845,-7.8908,-7.8986,-7.8999,-7.906,-7.9116,-7.9066,-7.9066,-7.898,-7.8532,-7.8422,-7.8786,-7.8782,-7.878,-7.8778,-7.8776,-7.9115,-7.8991,-7.9206,-7.927,-7.9362,-7.9489,-7.942,-7.955,-7.9593,-7.9674,-7.9569,-7.9246,-7.9197,-7.9159,-7.9068,-7.9576,-7.9576,-7.9576,-7.9577,-7.9405,-7.9374,-7.9584,-7.9689,-7.9787,-7.9748,-7.9995,-8.0008,-8.0003,-8.0027,-7.9946,-7.9819,-7.9783,-7.9756,-7.9705,-7.9619,-8.0257,-8.0258,-8.0258,-7.9718,-7.9695,-7.9915,-7.9907,-7.9975,-8.0036,-8.0267,-8.0394,-8.0361,-8.0285,-8.0046,-8.0017,-7.9813,-7.9748,-7.9668,-7.959,-7.9432,0,0]},{"header":{"parameterUnit":"m.s-1","parameterCategory":1,"la1":30.2992,"la2":30.254,"lo1":-89.0895,"lo2":-89.0443,"dy":0.0025,"dx":0.0025,"nx":19,"ny":19,"refTime":"2026-04-08T09:00:00:Z","depth":0,"parameterNumber":3,"parameterNumberName":"V-component_of_WINDS"},"data":[0,0,0,-1.4473,-1.4474,-1.4525,-1.4526,-1.4592,-1.4593,0,0,0,0,0,0,0,0,0,0,0,-1.4459,-1.4459,-1.4473,-1.4474,-1.4525,-1.4526,-1.4592,-1.4593,0,0,0,0,0,0,0,0,0,0,0,-1.4459,-1.4459,-1.446,-1.4474,-1.4525,-1.4526,-1.4592,-1.4553,0,0,0,0,0,0,0,0,0,0,-1.4503,-1.4491,-1.4459,-1.446,-1.4475,-1.4525,-1.4526,-1.4551,-1.4555,-1.4569,0,-1.4582,0,-1.4588,-1.4597,-1.4597,0,0,0,-1.4473,-1.4487,-1.45,-1.446,-1.4475,-1.4525,-1.4502,-1.4553,-1.4558,-1.4575,-1.4583,-1.4586,-1.459,-1.4597,-1.4598,-1.4681,-1.4681,0,0,-1.4471,-1.4469,-1.4497,-1.4503,-1.4496,-1.45,-1.4504,-1.4556,-1.4565,-1.4584,-1.4587,-1.4591,-1.4598,-1.4598,-1.468,-1.4681,0,0,0,-1.4463,-1.4467,-1.4478,-1.4501,-1.451,-1.4502,-1.4506,-1.4563,-1.4567,-1.4588,-1.4591,-1.4598,-1.4599,-1.468,-1.4681,-1.4699,0,0,0,-1.4461,-1.4462,-1.4477,-1.4476,-1.4509,-1.4537,-1.4511,-1.4563,-1.4569,-1.4591,-1.4598,-1.46,-1.4679,-1.468,-1.4698,-1.4708,0,0,0,-1.4455,-1.4462,-1.4469,-1.4476,-1.4498,-1.4536,-1.4543,-1.4564,-1.4571,-1.4597,-1.46,-1.4679,-1.468,-1.4696,-1.4706,-1.4729,0,0,0,-1.4448,-1.4486,-1.447,-1.4513,-1.4498,-1.4547,-1.4543,-1.458,-1.4605,-1.4599,-1.468,-1.4681,-1.4696,-1.4705,-1.4727,-1.4747,-1.4755,0,0,-1.4495,-1.4492,-1.4518,-1.4504,-1.4556,-1.454,-1.4594,-1.4619,-1.4623,-1.4661,-1.4663,-1.4698,-1.4706,-1.4728,-1.4802,-1.4809,0,0,0,-1.4532,-1.455,-1.4564,-1.4587,-1.4606,-1.4623,-1.4639,-1.4648,-1.468,-1.4643,-1.4712,-1.4717,-1.473,-1.474,-1.4745,-1.4756,-1.4685,-1.4685,-1.4685,-1.4597,-1.4599,-1.4641,-1.4649,-1.4671,-1.4686,-1.4704,-1.4718,-1.4715,-1.4731,-1.4743,-1.4787,-1.4798,-1.4802,-1.4814,-1.4754,-1.4754,-1.4754,-1.4754,-1.4665,-1.4691,-1.4684,-1.4722,-1.4724,-1.4756,-1.4771,-1.4767,-1.4796,-1.478,-1.4791,-1.4772,-1.481,-1.4819,-1.4755,-1.4755,-1.4755,-1.4755,-1.4755,-1.4708,-1.472,-1.4729,-1.4761,-1.4785,-1.4791,-1.4819,-1.482,-1.4821,-1.4832,-1.4843,-1.4843,-1.4842,-1.4838,-1.4838,-1.4838,-1.4838,-1.4838,-1.4838,-1.4748,-1.4758,-1.4781,-1.4802,-1.4816,-1.4834,-1.4847,-1.486,-1.4875,-1.4873,-1.4873,-1.4868,-1.4813,-1.4799,-1.4841,-1.484,-1.484,-1.484,-1.4839,-1.4816,-1.48,-1.4837,-1.485,-1.4874,-1.4896,-1.4896,-1.4922,-1.4933,-1.4946,-1.4938,-1.4897,-1.4894,-1.489,-1.4878,-1.4938,-1.4938,-1.4938,-1.4938,-1.4852,-1.485,-1.4885,-1.4906,-1.4927,-1.4929,-1.4968,-1.4978,-1.4986,-1.4993,-1.4984,-1.4969,-1.4964,-1.4964,-1.4958,-1.4947,-1.5023,-1.5023,-1.5023,-1.4893,-1.4893,-1.4926,-1.4933,-1.4951,-1.4966,-1.5002,-1.5026,-1.5032,-1.5026,-1.4998,-1.4994,-1.4969,-1.4961,-1.4956,-1.4946,-1.4926,0,0]}]]